Location: *
(28.3744°N, 81.5492°W)
Time: 02:51:49
(UTC+00:00)

Cosmos 1655 Rocket - Pass Details

Date: 15 June 2025
Orbit: 970 x 1005 km, 83.0° (Epoch: 11 July)

Event Time Altitude Azimuth Distance (km) Brightness Sun altitude
Exits shadow 09:24:24 14° 211° (SSW) 2,442 5.5 -12.9°
Maximum altitude 09:29:29 44° 279° (W) 1,341 4.4 -12.0°
Drops below altitude 10° 09:35:31 10° 350° (N) 2,767 6.7 -10.9°
Sets 09:38:12 0° 357° (N) 3,723 7.5 -10.4°
